Weather History for Fort Smith, AR

Change the Weather History Date:

Saturday, July 27, 2013

  Actual Average Record
Temperature  
Mean Temperature 79 °F 83 °F  
Max Temperature 89 °F 94 °F 107 °F (2011)
Min Temperature 68 °F 72 °F 61 °F (1911)
Cooling Degree Days 14 18  
Month to date cooling degree days 466 466  
Year to date cooling degree days 1193 1095  
Since 1 June cooling degree days 919 851  
Growing Degree Days 28 (Base 50)    
Moisture  
Dew Point 65 °F    
Average Humidity 65    
Maximum Humidity 93    
Minimum Humidity 37    
Precipitation  
Precipitation 0.00 in 0.11 in 3.83 in (1979)
Month to date precipitation 3.83 2.89  
Year to date precipitation 30.91 26.36  
Sea Level Pressure  
Sea Level Pressure 29.99 in    
Wind  
Wind Speed 4 mph (NNE)    
Max Wind Speed 12 mph    
Max Gust Speed 16 mph    
Visibility 10 miles    
Events      
T = Trace of Precipitation, MM = Missing Value Source: NWS Daily Summary

Daily Weather History Graph

Daily Weather History Graph

Search for Another Location

Airport:

Trip Planner

Search our weather history database for the weather conditions in past years. The results will help you decide how hot, cold, wet, or windy it might be!

Date:

Astronomy

Jul. 27, 2013 Rise Set
Actual Time 6:22 AM CDT 8:24 PM CDT
Civil Twilight 5:54 AM CDT 8:53 PM CDT
Nautical Twilight 5:19 AM CDT 9:27 PM CDT
Astronomical Twilight 4:42 AM CDT 10:04 PM CDT
Moon 11:28 PM CDT (7/27) 11:49 AM CDT (7/27)
Length of Visible Light 14h 58m
Length of Day
14h 02m
Waning Gibbous, 70% of the Moon is Illuminated
Jul 27
Waning Gibbous
Jul 29
Last Quarter
Aug 6
New
Aug 14
First Quarter
Aug 20
Full

Hourly Weather History & Observations

Time (CDT) Temp. Heat Index Dew Point Humidity Pressure Visibility Wind Dir Wind Speed Gust Speed Precip Events Conditions
12:02 AM 71.6 °F - 68.0 °F 88% 30.03 in 10.0 mi ENE 5.8 mph - N/A   Overcast
12:30 AM 69.8 °F - 66.2 °F 88% 30.02 in 10.0 mi East 6.9 mph - N/A   Overcast
12:53 AM 70.0 °F - 66.0 °F 87% 30.01 in 10.0 mi East 5.8 mph - N/A   Overcast
1:29 AM 68.0 °F - 66.2 °F 94% 30.01 in 10.0 mi ENE 5.8 mph - N/A   Scattered Clouds
1:53 AM 68.0 °F - 66.0 °F 93% 30.00 in 10.0 mi ENE 3.5 mph - N/A   Scattered Clouds
2:01 AM 69.8 °F - 66.2 °F 88% 30.01 in 10.0 mi Calm Calm - N/A   Mostly Cloudy
2:53 AM 69.1 °F - 66.0 °F 90% 30.00 in 10.0 mi NE 4.6 mph - N/A   Overcast
3:26 AM 68.0 °F - 66.2 °F 94% 30.01 in 10.0 mi East 3.5 mph - N/A   Scattered Clouds
3:53 AM 68.0 °F - 66.0 °F 93% 29.99 in 9.0 mi ENE 4.6 mph - N/A   Mostly Cloudy
4:53 AM 69.1 °F - 66.0 °F 90% 30.00 in 10.0 mi ENE 3.5 mph - N/A   Overcast
5:53 AM 69.1 °F - 66.0 °F 90% 30.01 in 10.0 mi North 3.5 mph - N/A   Overcast
6:53 AM 69.1 °F - 66.0 °F 90% 30.02 in 10.0 mi Calm Calm - N/A   Overcast
7:53 AM 70.0 °F - 66.0 °F 87% 30.03 in 10.0 mi Calm Calm - N/A   Overcast
8:53 AM 72.0 °F - 66.0 °F 81% 30.03 in 10.0 mi Calm Calm - N/A   Overcast
9:17 AM 73.4 °F - 66.2 °F 78% 30.04 in 10.0 mi Calm Calm - N/A   Scattered Clouds
9:53 AM 75.0 °F - 66.9 °F 76% 30.03 in 10.0 mi Calm Calm - N/A   Partly Cloudy
10:53 AM 79.0 °F - 66.9 °F 66% 30.03 in 10.0 mi NNE 4.6 mph - N/A   Scattered Clouds
11:53 AM 79.0 °F - 68.0 °F 69% 30.02 in 10.0 mi NW 4.6 mph - N/A   Scattered Clouds
12:53 PM 82.9 °F 85.8 °F 68.0 °F 60% 29.99 in 10.0 mi NW 5.8 mph - N/A   Scattered Clouds
1:53 PM 84.0 °F 86.5 °F 66.9 °F 56% 29.98 in 10.0 mi WNW 6.9 mph - N/A   Partly Cloudy
2:53 PM 87.1 °F 88.3 °F 64.0 °F 46% 29.96 in 10.0 mi North 8.1 mph - N/A   Partly Cloudy
3:53 PM 89.1 °F 89.3 °F 62.1 °F 40% 29.94 in 10.0 mi NNW 8.1 mph - N/A   Partly Cloudy
4:53 PM 89.1 °F 88.2 °F 59.0 °F 36% 29.94 in 10.0 mi North 6.9 mph - N/A   Clear
5:53 PM 88.0 °F 87.9 °F 61.0 °F 40% 29.92 in 10.0 mi NNW 5.8 mph - N/A   Clear
6:53 PM 87.1 °F 87.5 °F 62.1 °F 43% 29.92 in 10.0 mi NW 8.1 mph - N/A   Clear
7:53 PM 82.9 °F 83.3 °F 61.0 °F 47% 29.93 in 10.0 mi NW 5.8 mph - N/A   Clear
8:53 PM 81.0 °F 81.9 °F 62.1 °F 52% 29.93 in 10.0 mi NNW 4.6 mph - N/A   Clear
9:53 PM 79.0 °F - 64.0 °F 60% 29.93 in 10.0 mi Calm Calm - N/A   Clear
10:53 PM 75.0 °F - 66.9 °F 76% 29.94 in 10.0 mi Calm Calm - N/A   Clear
11:53 PM 75.0 °F - 64.9 °F 71% 29.96 in 10.0 mi NE 4.6 mph - N/A   Clear